sat.trackr.live / text

‹ back to catalog

STARLINK-31319

NORAD 59457 · 2024-068C

PAYLOAD ACTIVE UNKNOWN

§ Identity

Operator
Country
US
Launch date
2024-04-10
Launch site
AFETR
Launch vehicle
Mass (kg)
RCS (m²)

Purposes: comms

External: N2YO · Heavens-Above · Gunter

§ Orbital elements

Epoch: 2026-09-21T14:03:18.571104Z

Period
94.27 min
Inclination
43.0012°
Eccentricity
0.0001248
Mean motion
15.27576029 rev/d
Perigee alt
482.2 km
Apogee alt
483.9 km
Semi-major
6,861.2 km
B*
3.1791e-5
RAAN
4.6426°
Arg perigee
291.9437°
Mean anomaly
68.1282°
Rev number
13,852

§ Raw data

STARLINK-313191 59457U 24068C   26264.58563161  .00000613  00000+0  31791-4 0  99992 59457  43.0012   4.6426 0001248 291.9437  68.1282 15.27576029138524

JSON: /api/v1/satellites/59457 · /tle

For live sub-satellite position, see the globe view (requires WebGL).

§ Visibility from observer

Set your observer location to see the next 7 days of passes ≥ 10°. The values pass through the URL so the page stays shareable.

No JS? Fill the form by hand. The geolocation button needs JavaScript.